KB2SKP Weather Reports


Display with metric or nautical units.
time (UTC)temp
F
wind
direction
speed
MPH
gust
MPH
rain 1hr
in
rain 24hr
in
rain mn
in
humidity
%
barometer
mb
20260510185034 82 342 2.0 3.0 0.00 0.00 0.00 37 1009.2
20260510184531 81 212 1.0 4.0 0.00 0.00 0.00 36 1009.4
20260510184026 82 258 4.0 5.0 0.00 0.00 0.00 38 1009.5
20260510183522 82 252 2.0 3.0 0.00 0.00 0.00 38 1009.6
20260510183017 80 278 0.0 3.0 0.00 0.00 0.00 38 1009.3
20260510182514 82 74 1.0 3.0 0.00 0.00 0.00 35 1009.6
20260510182009 82 230 3.0 3.0 0.00 0.00 0.00 36 1009.6
20260510181508 83 233 2.0 5.0 0.00 0.00 0.00 35 1009.5
20260510181003 82 60 2.0 5.0 0.00 0.00 0.00 36 1009.5
20260510180501 82 224 4.0 5.0 0.00 0.00 0.00 37 1009.5
20260510175957 82 262 1.0 3.0 0.00 0.00 0.00 37 1009.9
20260510175453 81 303 2.0 3.0 0.00 0.00 0.00 39 1009.5
20260510174948 82 282 2.0 3.0 0.00 0.00 0.00 37 1009.6
20260510174447 82 227 0.0 3.0 0.00 0.00 0.00 41 1009.6
20260510173944 82 212 0.0 2.0 0.00 0.00 0.00 39 1009.6
20260510173440 81 254 3.0 4.0 0.00 0.00 0.00 40 1009.8
20260510172936 80 280 1.0 3.0 0.00 0.00 0.00 40 1010.0
20260510172432 80 272 4.0 5.0 0.00 0.00 0.00 39 1009.8
20260510171928 80 260 2.0 3.0 0.00 0.00 0.00 40 1009.9
20260510171426 80 106 0.0 2.0 0.00 0.00 0.00 42 1010.2
20260510170922 79 145 2.0 4.0 0.00 0.00 0.00 40 1010.0
20260510170419 79 76 0.0 2.0 0.00 0.00 0.00 40 1010.1
20260510165914 79 215 2.0 3.0 0.00 0.00 0.00 42 1010.1
20260510165410 80 131 3.0 3.0 0.00 0.00 0.00 42 1010.1
20260510164908 78 326 0.0 3.0 0.00 0.00 0.00 41 1010.1
20260510164404 80 191 0.0 2.0 0.00 0.00 0.00 41 1010.4
20260510163859 79 216 1.0 2.0 0.00 0.00 0.00 44 1010.0
20260510163355 79 324 2.0 2.0 0.00 0.00 0.00 43 1010.0
20260510162849 78 237 2.0 4.0 0.00 0.00 0.00 42 1010.3
20260510162342 78 231 0.0 3.0 0.00 0.00 0.00 43 1009.9
20260510161837 79 116 0.0 4.0 0.00 0.00 0.00 44 1010.1
20260510161333 78 72 1.0 2.0 0.00 0.00 0.00 45 1010.3
20260510160830 78 243 2.0 3.0 0.00 0.00 0.00 45 1010.2
20260510160327 78 4 0.0 5.0 0.00 0.00 0.00 48 1010.4
20260510155821 77 193 0.0 3.0 0.00 0.00 0.00 49 1010.3
20260510155318 76 265 1.0 3.0 0.00 0.00 0.00 48 1010.1
20260510154814 77 130 3.0 3.0 0.00 0.00 0.00 50 1010.3
20260510154310 77 38 0.0 2.0 0.00 0.00 0.00 52 1010.2
20260510153804 78 30 2.0 2.0 0.00 0.00 0.00 52 1010.1
20260510153300 78 293 0.0 2.0 0.00 0.00 0.00 52 1010.2
20260510152757 77 244 1.0 3.0 0.00 0.00 0.00 53 1010.2
20260510152254 77 243 1.0 3.0 0.00 0.00 0.00 49 1010.3
20260510151750 77 218 2.0 2.0 0.00 0.00 0.00 49 1010.3
20260510151249 76 285 1.0 2.0 0.00 0.00 0.00 50 1010.2
20260510150744 76 135 2.0 3.0 0.00 0.00 0.00 50 1010.2
20260510150240 76 317 2.0 3.0 0.00 0.00 0.00 51 1010.2
20260510145736 76 3 0.0 2.0 0.00 0.00 0.00 51 1010.4
20260510145233 75 135 0.0 3.0 0.00 0.00 0.00 52 1010.1
20260510144729 75 80 0.0 2.0 0.00 0.00 0.00 54 1010.1
20260510144226 75 99 0.0 2.0 0.00 0.00 0.00 54 1010.2
20260510143720 75 103 0.0 3.0 0.00 0.00 0.00 54 1010.0
20260510143217 75 89 0.0 1.0 0.00 0.00 0.00 55 1010.0
20260510142714 74 204 2.0 2.0 0.00 0.00 0.00 54 1010.4
20260510142210 74 101 2.0 2.0 0.00 0.00 0.00 56 1010.2
20260510141707 74 168 0.0 1.0 0.00 0.00 0.00 55 1010.3
20260510141206 73 240 0.0 3.0 0.00 0.00 0.00 55 1010.2
20260510140702 73 182 2.0 2.0 0.00 0.00 0.00 54 1009.9
20260510140202 73 115 2.0 3.0 0.00 0.00 0.00 57 1009.9
20260510135656 71 154 0.0 0.0 0.00 0.00 0.00 60 1010.0
20260510135153 72 99 0.0 0.0 0.00 0.00 0.00 59 1010.0
20260510134650 71 185 2.0 2.0 0.00 0.00 0.00 60 1009.9
20260510134147 71 192 0.0 2.0 0.00 0.00 0.00 61 1009.8
20260510133643 70 131 0.0 2.0 0.00 0.00 0.00 63 1009.9
20260510133138 70 242 2.0 3.0 0.00 0.00 0.00 63 1010.1
20260510132635 70 275 1.0 2.0 0.00 0.00 0.00 64 1010.3
20260510132133 69 25 0.0 2.0 0.00 0.00 0.00 66 1010.2
20260510131630 69 227 0.0 2.0 0.00 0.00 0.00 68 1010.1
20260510131127 68 99 0.0 1.0 0.00 0.00 0.00 71 1010.1
20260510130624 68 123 0.0 2.0 0.00 0.00 0.00 73 1009.8
20260510130121 68 38 0.0 2.0 0.00 0.00 0.00 73 1010.0
20260510125618 67 89 0.0 2.0 0.00 0.00 0.00 73 1010.0
20260510125114 67 269 0.0 2.0 0.00 0.00 0.00 74 1009.9
20260510124611 66 326 0.0 2.0 0.00 0.00 0.00 77 1009.8
20260510124108 65 98 2.0 3.0 0.00 0.00 0.00 80 1009.9
20260510123603 64 157 0.0 2.0 0.00 0.00 0.00 84 1009.8
20260510123059 63 199 0.0 1.0 0.00 0.00 0.00 85 1009.8
20260510122555 62 102 0.0 2.0 0.00 0.00 0.00 88 1009.9
20260510122051 62 345 0.0 2.0 0.00 0.00 0.00 89 1009.7
20260510121549 62 103 1.0 3.0 0.00 0.00 0.00 90 1009.6
20260510121046 61 140 1.0 2.0 0.00 0.00 0.00 92 1009.4
20260510120544 60 141 2.0 2.0 0.00 0.00 0.00 94 1009.5
20260510120038 59 33 0.0 2.0 0.00 0.00 0.00 95 1009.5
20260510115536 59 106 2.0 2.0 0.00 0.00 0.00 96 1009.4
20260510115033 58 133 0.0 0.0 0.00 0.00 0.00 96 1009.4
20260510114528 58 251 0.0 2.0 0.00 0.00 0.00 96 1009.3
20260510114025 57 48 0.0 2.0 0.00 0.00 0.00 96 1009.2
20260510113520 57 131 1.0 2.0 0.00 0.00 0.00 96 1009.2
20260510113018 57 81 1.0 2.0 0.00 0.00 0.00 96 1009.0
20260510112514 57 128 1.0 2.0 0.00 0.00 0.00 96 1009.1
20260510112010 56 54 0.0 2.0 0.00 0.00 0.00 96 1009.2
20260510111508 56 273 0.0 2.0 0.00 0.00 0.00 96 1008.9
20260510111003 56 84 2.0 2.0 0.00 0.00 0.00 96 1009.0
20260510110459 55 99 1.0 2.0 0.00 0.00 0.00 96 1008.9
20260510105956 55 140 0.0 2.0 0.00 0.00 0.00 96 1008.7
20260510105451 55 123 0.0 2.0 0.00 0.00 0.00 96 1008.8
20260510104946 56 112 2.0 3.0 0.00 0.00 0.00 96 1008.6
20260510104443 56 97 0.0 2.0 0.00 0.00 0.00 96 1008.6
20260510103939 56 157 1.0 2.0 0.00 0.00 0.00 96 1008.4
20260510103437 56 146 0.0 2.0 0.00 0.00 0.00 96 1008.4
20260510102932 56 99 1.0 2.0 0.00 0.00 0.00 96 1008.3
20260510102428 56 155 2.0 2.0 0.00 0.00 0.00 96 1008.2
20260510101925 56 112 0.0 2.0 0.00 0.00 0.00 97 1008.2
20260510101423 56 182 0.0 2.0 0.00 0.00 0.00 96 1008.1
20260510100921 56 164 1.0 2.0 0.00 0.00 0.00 97 1008.0
20260510100417 56 115 0.0 1.0 0.00 0.00 0.00 97 1007.8
20260510095913 56 187 0.0 2.0 0.00 0.00 0.00 96 1008.0
20260510095409 56 162 1.0 1.0 0.00 0.00 0.00 96 1007.9
20260510094908 55 196 0.0 1.0 0.00 0.00 0.00 96 1007.9
20260510094403 56 154 0.0 2.0 0.00 0.00 0.00 96 1007.7
20260510093900 56 174 0.0 2.0 0.00 0.00 0.00 96 1007.6
20260510093355 56 232 0.0 2.0 0.00 0.00 0.00 96 1007.5
20260510092852 56 142 0.0 2.0 0.00 0.00 0.00 96 1007.5
20260510092349 56 86 0.0 2.0 0.00 0.00 0.00 96 1007.5
20260510091844 57 77 0.0 2.0 0.00 0.00 0.00 96 1007.4
20260510091341 57 152 1.0 2.0 0.00 0.00 0.00 96 1007.4
20260510090837 57 192 2.0 2.0 0.00 0.00 0.00 95 1007.4
20260510090329 57 131 1.0 2.0 0.00 0.00 0.00 95 1007.1
20260510085824 57 164 1.0 2.0 0.00 0.00 0.00 95 1007.2
20260510085319 57 128 0.0 2.0 0.00 0.00 0.00 95 1007.0
20260510084815 57 144 1.0 2.0 0.00 0.00 0.00 95 1007.1
20260510084312 57 102 0.0 2.0 0.00 0.00 0.00 95 1007.1
20260510083809 57 135 0.0 1.0 0.00 0.00 0.00 95 1006.8
20260510083306 58 158 0.0 2.0 0.00 0.00 0.00 95 1006.9
20260510082801 58 191 2.0 2.0 0.00 0.00 0.00 94 1007.2
20260510082258 58 141 2.0 2.0 0.00 0.00 0.00 95 1007.0
20260510081756 58 214 1.0 2.0 0.00 0.00 0.00 95 1007.0
20260510081253 57 177 0.0 2.0 0.00 0.00 0.00 95 1006.9
20260510080748 57 180 0.0 2.0 0.00 0.00 0.00 95 1006.9
20260510080244 57 78 0.0 2.0 0.00 0.00 0.00 95 1006.9
20260510075741 57 141 1.0 2.0 0.00 0.00 0.00 94 1006.9
20260510075239 57 148 0.0 2.0 0.00 0.00 0.00 94 1007.0
20260510074736 57 122 1.0 2.0 0.00 0.00 0.00 93 1007.0
20260510074232 57 138 0.0 2.0 0.00 0.00 0.00 93 1006.9
20260510073728 57 145 0.0 2.0 0.00 0.00 0.00 93 1006.6
20260510073224 57 139 0.0 2.0 0.00 0.00 0.00 93 1006.8
20260510072720 58 144 1.0 2.0 0.00 0.00 0.00 92 1006.7
20260510072217 58 103 0.0 2.0 0.00 0.00 0.00 92 1006.6
20260510071714 58 110 0.0 1.0 0.00 0.00 0.00 92 1006.8
20260510071210 58 124 0.0 1.0 0.00 0.00 0.00 92 1006.8
20260510070709 58 158 1.0 2.0 0.00 0.00 0.00 92 1007.0
20260510070205 58 164 1.0 2.0 0.00 0.00 0.00 91 1006.7
20260510065700 59 138 1.0 2.0 0.00 0.00 0.00 91 1006.7
20260510065157 58 135 1.0 2.0 0.00 0.00 0.00 91 1006.9
20260510064653 59 150 0.0 2.0 0.00 0.00 0.00 91 1006.7
20260510064151 59 84 0.0 2.0 0.00 0.00 0.00 91 1006.7
20260510063648 59 122 0.0 1.0 0.00 0.00 0.00 91 1006.9
20260510063144 59 141 0.0 2.0 0.00 0.00 0.00 91 1006.9
20260510062641 59 115 2.0 3.0 0.00 0.00 0.00 91 1006.8
20260510062137 59 157 0.0 2.0 0.00 0.00 0.00 91 1006.9
20260510061632 58 110 0.0 2.0 0.00 0.00 0.00 90 1006.7
20260510061130 59 103 1.0 2.0 0.00 0.00 0.00 90 1007.0
20260510060625 59 44 0.0 2.0 0.00 0.00 0.00 90 1006.6
20260510060122 59 109 1.0 2.0 0.00 0.00 0.00 90 1006.9
20260510055618 59 106 1.0 2.0 0.00 0.00 0.00 90 1006.8
20260510055117 59 114 1.0 1.0 0.00 0.00 0.00 90 1006.8
20260510054612 59 107 0.0 2.0 0.00 0.00 0.00 90 1006.8
20260510054107 59 130 0.0 2.0 0.00 0.00 0.00 90 1006.9
20260510053607 59 108 0.0 2.0 0.00 0.00 0.00 90 1006.6
20260510053104 59 114 0.0 2.0 0.00 0.00 0.00 90 1006.7
20260510052600 59 118 0.0 2.0 0.00 0.00 0.00 90 1006.8
20260510052056 59 69 0.0 1.0 0.00 0.00 0.00 90 1007.1
20260510051551 59 189 0.0 1.0 0.00 0.00 0.00 90 1007.0
20260510051048 58 129 0.0 1.0 0.00 0.00 0.00 90 1007.0
20260510050540 58 142 1.0 2.0 0.00 0.00 0.00 90 1007.1
20260510050037 58 118 0.0 2.0 0.00 0.00 0.00 90 1006.8
20260510045535 58 143 0.0 1.0 0.00 0.00 0.00 91 1007.0
20260510045030 58 109 1.0 2.0 0.00 0.00 0.00 91 1007.2
20260510044527 58 101 0.0 2.0 0.00 0.00 0.00 91 1007.2
20260510044025 58 125 0.0 2.0 0.00 0.00 0.00 90 1007.1
20260510043520 58 122 0.0 2.0 0.00 0.00 0.00 90 1007.0
20260510043015 58 133 2.0 2.0 0.00 0.00 0.00 90 1006.9
20260510042510 58 243 0.0 2.0 0.00 0.00 0.00 90 1006.8
20260510042005 58 122 1.0 2.0 0.00 0.00 0.00 90 1006.8
20260510041503 58 92 1.0 2.0 0.00 0.00 0.00 90 1006.9
20260510041000 58 101 1.0 2.0 0.00 0.00 0.00 90 1006.7
20260510040456 58 76 0.0 2.0 0.00 0.00 0.00 90 1006.8
20260510035952 58 107 0.0 2.0 0.00 0.00 0.00 90 1006.9
20260510035449 58 98 1.0 2.0 0.00 0.00 0.00 90 1006.7
20260510034948 58 116 0.0 2.0 0.00 0.00 0.00 90 1007.0
20260510034447 58 103 1.0 2.0 0.00 0.00 0.00 89 1006.9
20260510033943 58 107 1.0 2.0 0.00 0.00 0.00 89 1006.9
20260510033439 59 200 0.0 2.0 0.00 0.00 0.00 89 1006.6
20260510032937 58 136 1.0 3.0 0.00 0.00 0.00 90 1006.9
20260510032434 58 55 1.0 2.0 0.00 0.00 0.00 90 1006.8
20260510031928 58 123 1.0 2.0 0.00 0.00 0.00 89 1006.6
20260510031424 59 131 0.0 2.0 0.00 0.00 0.00 89 1006.6
20260510030920 59 176 2.0 2.0 0.00 0.00 0.00 89 1006.6
20260510030416 59 130 1.0 2.0 0.00 0.00 0.00 89 1006.3
20260510025914 59 142 1.0 2.0 0.00 0.00 0.00 89 1006.4
20260510025410 59 42 0.0 2.0 0.00 0.00 0.00 89 1006.5
20260510024908 59 113 0.0 2.0 0.00 0.00 0.00 88 1006.2
20260510024404 59 165 0.0 3.0 0.00 0.00 0.00 88 1006.5
20260510023900 60 158 0.0 1.0 0.00 0.00 0.00 88 1006.1
20260510023357 60 308 0.0 3.0 0.00 0.00 0.00 88 1006.3
20260510022854 60 113 0.0 2.0 0.00 0.00 0.00 88 1006.1
20260510022353 60 204 0.0 2.0 0.00 0.00 0.00 88 1006.1
20260510021852 60 76 0.0 2.0 0.00 0.00 0.00 88 1006.4
20260510021350 60 158 2.0 2.0 0.00 0.00 0.00 89 1006.1
20260510020847 60 143 0.0 1.0 0.00 0.00 0.00 88 1006.0
20260510020347 60 116 0.0 1.0 0.00 0.00 0.00 88 1006.1
20260510015842 60 89 0.0 1.0 0.00 0.00 0.00 88 1005.9
20260510015338 60 107 0.0 1.0 0.00 0.00 0.00 88 1006.1
20260510014834 60 102 0.0 1.0 0.00 0.00 0.00 88 1005.8
20260510014331 60 113 0.0 1.0 0.00 0.00 0.00 87 1006.0
20260510013827 61 99 0.0 1.0 0.00 0.00 0.00 87 1005.8
20260510013323 61 129 0.0 1.0 0.00 0.00 0.00 87 1005.9
20260510012818 61 116 0.0 2.0 0.00 0.00 0.00 86 1005.9
20260510012318 61 92 1.0 1.0 0.00 0.00 0.00 86 1005.9
20260510011813 61 130 0.0 1.0 0.00 0.00 0.00 85 1005.7
20260510011308 61 130 0.0 0.0 0.00 0.00 0.00 85 1005.9
20260510010805 62 42 0.0 1.0 0.00 0.00 0.00 85 1005.5
20260510010303 62 37 0.0 0.0 0.00 0.00 0.00 84 1005.6
20260510005759 62 66 0.0 1.0 0.00 0.00 0.00 84 1005.7
20260510005255 62 135 0.0 0.0 0.00 0.00 0.00 83 1005.5
20260510004754 63 113 0.0 0.0 0.00 0.00 0.00 83 1005.5
20260510004251 63 89 0.0 1.0 0.00 0.00 0.00 82 1005.5
20260510003748 63 112 1.0 2.0 0.00 0.00 0.00 81 1005.3
20260510003245 64 89 0.0 0.0 0.00 0.00 0.00 80 1005.3
20260510002743 64 113 0.0 0.0 0.00 0.00 0.00 79 1005.3
20260510002241 64 113 0.0 0.0 0.00 0.00 0.00 78 1005.3
20260510001737 65 142 0.0 0.0 0.00 0.00 0.00 77 1005.2
20260510001236 65 113 0.0 0.0 0.00 0.00 0.00 76 1005.2
20260510000732 66 44 0.0 0.0 0.00 0.00 0.00 76 1005.1
20260510000229 66 31 0.0 0.0 0.00 0.00 0.00 75 1005.0
20260509235726 66 37 0.0 0.0 0.00 0.00 0.00 74 1005.1
20260509235222 67 57 0.0 1.0 0.00 0.00 0.00 73 1004.9
20260509234718 67 49 0.0 0.0 0.00 0.00 0.00 72 1004.9
20260509234215 68 49 0.0 0.0 0.00 0.00 0.00 71 1005.0
20260509233713 68 49 0.0 0.0 0.00 0.00 0.00 70 1005.2
20260509233205 68 49 0.0 0.0 0.00 0.00 0.00 69 1005.0
20260509232701 69 49 0.0 0.0 0.00 0.00 0.00 68 1004.9
20260509232158 69 49 0.0 0.0 0.00 0.00 0.00 67 1004.9
20260509231655 69 49 0.0 1.0 0.00 0.00 0.00 66 1004.9
20260509231152 70 32 0.0 0.0 0.00 0.00 0.00 65 1004.8
20260509230649 70 119 0.0 1.0 0.00 0.00 0.00 64 1005.0
20260509230146 70 66 0.0 0.0 0.00 0.00 0.00 64 1004.9
20260509225642 70 89 0.0 1.0 0.00 0.00 0.00 63 1004.8
20260509225137 70 55 0.0 1.0 0.00 0.00 0.00 63 1005.1
20260509224633 70 55 0.0 1.0 0.00 0.00 0.00 63 1004.9
20260509224130 70 15 0.0 2.0 0.00 0.00 0.00 62 1005.1
20260509223626 70 55 0.0 1.0 0.00 0.00 0.00 62 1005.0
20260509223119 71 304 0.0 1.0 0.00 0.00 0.00 61 1005.1
20260509222615 71 352 0.0 1.0 0.00 0.00 0.00 62 1005.0
20260509222110 71 322 0.0 1.0 0.00 0.00 0.00 62 1005.0
20260509221606 71 15 0.0 2.0 0.00 0.00 0.00 61 1005.3
20260509221103 71 17 1.0 1.0 0.00 0.00 0.00 63 1005.1
20260509220558 72 116 1.0 1.0 0.00 0.00 0.00 62 1004.9
20260509220055 72 58 1.0 2.0 0.00 0.00 0.00 62 1005.2
20260509215550 71 6 0.0 1.0 0.00 0.00 0.00 63 1004.9
20260509215048 71 62 0.0 2.0 0.00 0.00 0.00 65 1005.0
20260509214545 71 51 0.0 2.0 0.00 0.00 0.00 64 1005.0
20260509214042 71 110 1.0 2.0 0.00 0.00 0.00 65 1005.1
20260509213538 71 229 0.0 2.0 0.00 0.00 0.00 65 1004.8
20260509213035 70 79 0.0 2.0 0.00 0.00 0.00 65 1005.0
20260509212532 71 37 0.0 2.0 0.00 0.00 0.00 65 1004.9
20260509212029 70 49 0.0 2.0 0.00 0.00 0.00 64 1004.9
20260509211524 69 50 0.0 1.0 0.00 0.00 0.00 65 1004.9
20260509211021 70 84 0.0 2.0 0.00 0.00 0.00 64 1004.8
20260509210518 70 327 2.0 2.0 0.00 0.00 0.00 64 1004.6
20260509210015 70 20 0.0 2.0 0.00 0.00 0.00 64 1004.7
20260509205509 71 325 0.0 1.0 0.00 0.00 0.00 63 1004.7
20260509205005 72 349 0.0 2.0 0.00 0.00 0.00 62 1004.6
20260509204501 73 5 0.0 1.0 0.00 0.00 0.00 59 1004.5
20260509203957 71 6 0.0 1.0 0.00 0.00 0.00 57 1004.7
20260509203453 73 34 0.0 1.0 0.00 0.00 0.00 55 1004.6
20260509202951 72 235 0.0 2.0 0.00 0.00 0.00 55 1004.6
20260509202447 72 173 0.0 0.0 0.00 0.00 0.00 55 1004.9
20260509201942 72 173 0.0 0.0 0.00 0.00 0.00 55 1004.8
20260509201438 72 6 0.0 0.0 0.00 0.00 0.00 54 1004.7
20260509200935 73 142 2.0 2.0 0.00 0.00 0.00 54 1005.0
20260509200434 73 329 0.0 0.0 0.00 0.00 0.00 56 1005.0
20260509195932 73 299 0.0 2.0 0.00 0.00 0.00 53 1005.0
20260509195427 74 269 0.0 1.0 0.00 0.00 0.00 50 1005.0
20260509194920 74 91 0.0 2.0 0.00 0.00 0.00 51 1005.3
20260509194416 75 36 2.0 3.0 0.00 0.00 0.00 50 1005.2
20260509193914 75 75 0.0 2.0 0.00 0.00 0.00 51 1005.3
20260509193413 75 237 1.0 3.0 0.00 0.00 0.00 51 1005.3
20260509192909 75 116 2.0 2.0 0.00 0.00 0.00 51 1005.2
20260509192405 75 50 0.0 2.0 0.00 0.00 0.00 52 1005.6
20260509191901 75 325 2.0 2.0 0.00 0.00 0.00 52 1005.6
20260509191357 74 89 0.0 3.0 0.00 0.00 0.00 52 1005.6
20260509190853 73 74 1.0 2.0 0.00 0.00 0.00 53 1005.5
20260509190350 72 30 1.0 3.0 0.00 0.00 0.00 53 1005.5
20260509185848 72 17 2.0 3.0 0.00 0.00 0.00 53 1006.1